This is the latest recevied weather packets stored in our database for station/object YC0TBU-3. If no packets are shown the sender has not sent any weather packets the latest 10 day(s).
| Time | Temp. | Humidity | Pressure | Rain* | Wind** | Luminosity | Snow |
|---|---|---|---|---|---|---|---|
| 1777634060 | 25.56° C | 52% | 1012.3 hPa | - | - | - | - |
| 1777633361 | 25.56° C | 52% | 1011.9 hPa | - | - | - | - |
| 1777632634 | 25.56° C | 52% | 1011.2 hPa | - | - | - | - |
| 1777631929 | 25.56° C | 52% | 1012.8 hPa | - | - | - | - |
| 1777631224 | 25.56° C | 52% | 1012.5 hPa | - | - | - | - |
| 1777630519 | 25.56° C | 52% | 1011.8 hPa | - | - | - | - |
| 1777629814 | 25.56° C | 52% | 1012 hPa | - | - | - | - |
| 1777629109 | 25.56° C | 52% | 1012.7 hPa | - | - | - | - |
| 1777628404 | 25.56° C | 53% | 1012.7 hPa | - | - | - | - |
| 1777627699 | 25.56° C | 53% | 1011.6 hPa | - | - | - | - |
| 1777626994 | 25.56° C | 53% | 1014.2 hPa | - | - | - | - |
| 1777626289 | 25.56° C | 53% | 1012.9 hPa | - | - | - | - |
| 1777625584 | 25.56° C | 54% | 1012.5 hPa | - | - | - | - |
| 1777624879 | 25° C | 54% | 1013.4 hPa | - | - | - | - |
| 1777624174 | 25.56° C | 53% | 1011.4 hPa | - | - | - | - |
| 1777623468 | 25° C | 54% | 1011.5 hPa | - | - | - | - |
| 1777622764 | 25° C | 55% | 1011.3 hPa | - | - | - | - |
| 1777622059 | 25° C | 54% | 1010.3 hPa | - | - | - | - |
| 1777621354 | 26.11° C | 52% | 1011.7 hPa | - | - | - | - |
| 1777620649 | 25.56° C | 51% | 1011.2 hPa | - | - | - | - |
| 1777619944 | 25.56° C | 51% | 1010.2 hPa | - | - | - | - |
| 1777619239 | 25.56° C | 49% | 1011 hPa | - | - | - | - |
| 1777618533 | 25.56° C | 46% | 1010.8 hPa | - | - | - | - |
| 1777617828 | 26.11° C | 49% | 1011 hPa | - | - | - | - |
| 1777617123 | 25.56° C | 51% | 1012 hPa | - | - | - | - |
* Rain since midnight (hover to see other rain measurements)
** Current wind speed in m/s (hover to see current wind gust speed)